Time,TemperatureF,DewpointF,PressureIn,WindDirection,WindDirectionDegrees,WindSpeedMPH,WindSpeedGustMPH,Humidity,HourlyPrecipIn,Conditions,Clouds,dailyrainin,SolarRadiationWatts/m^2,SoftwareType,DateUTC
2013-03-17 00:00:00,38.8,34.7,30.02,NE,48,1.0,2.0,85,0.00,,---,0.00,0.00,VWS V14.00,2013-03-17 04:00:00,
2013-03-17 00:03:00,38.9,34.8,30.01,NE,47,0.0,1.0,85,0.00,,---,0.00,0.00,VWS V14.00,2013-03-17 04:03:00,
2013-03-17 00:08:00,38.9,34.8,30.01,ESE,108,1.0,2.0,85,0.00,,---,0.00,0.00,VWS V14.00,2013-03-17 04:08:00,
2013-03-17 00:13:00,38.8,34.7,30.01,ESE,108,0.0,4.0,85,0.00,,---,0.00,0.00,VWS V14.00,2013-03-17 04:13:00,
2013-03-17 00:18:00,38.8,35.0,30.01,ESE,108,0.0,0.0,86,0.00,,---,0.00,0.00,VWS V14.00,2013-03-17 04:18:00,
2013-03-17 00:23:00,38.8,34.7,30.01,ESE,117,4.0,4.0,85,0.00,,---,0.00,0.00,VWS V14.00,2013-03-17 04:23:00,
2013-03-17 00:28:00,38.7,34.6,30.01,NE,42,1.0,1.0,85,0.00,,---,0.00,0.00,VWS V14.00,2013-03-17 04:28:00,
2013-03-17 00:33:00,38.7,34.6,30.01,ESE,111,0.0,5.0,85,0.00,,---,0.00,0.00,VWS V14.00,2013-03-17 04:33:00,
2013-03-17 00:38:00,38.6,34.5,30.01,East,95,0.0,2.0,85,0.00,,---,0.00,0.00,VWS V14.00,2013-03-17 04:38:00,
2013-03-17 00:43:00,38.5,34.4,30.01,East,96,0.0,2.0,85,0.00,,---,0.00,0.00,VWS V14.00,2013-03-17 04:43:00,
2013-03-17 00:48:00,38.4,34.3,30.02,ESE,109,0.0,6.0,85,0.00,,---,0.00,0.00,VWS V14.00,2013-03-17 04:48:00,
2013-03-17 00:53:00,38.4,34.3,30.01,NE,45,0.0,5.0,85,0.00,,---,0.00,0.00,VWS V14.00,2013-03-17 04:53:00,
2013-03-17 00:58:00,38.4,34.3,30.01,North,9,0.0,5.0,85,0.00,,---,0.00,0.00,VWS V14.00,2013-03-17 04:58:00,
2013-03-17 01:03:00,38.3,34.2,30.02,NE,43,1.0,6.0,85,0.00,,---,0.00,0.00,VWS V14.00,2013-03-17 05:03:00,
2013-03-17 01:08:00,38.3,34.2,30.02,NE,36,0.0,1.0,85,0.00,,---,0.00,0.00,VWS V14.00,2013-03-17 05:08:00,
2013-03-17 01:13:00,38.3,34.2,30.01,NNE,24,1.0,4.0,85,0.00,,---,0.00,0.00,VWS V14.00,2013-03-17 05:13:00,
2013-03-17 01:18:00,38.2,34.1,30.01,NNE,15,1.0,5.0,85,0.00,,---,0.00,0.00,VWS V14.00,2013-03-17 05:18:00,
2013-03-17 01:23:00,38.2,34.1,30.02,NNE,25,2.0,4.0,85,0.00,,---,0.00,0.00,VWS V14.00,2013-03-17 05:23:00,
2013-03-17 01:28:00,38.2,34.1,30.02,NNE,23,0.0,2.0,85,0.00,,---,0.00,0.00,VWS V14.00,2013-03-17 05:28:00,
2013-03-17 01:33:00,38.2,34.4,30.02,NE,53,0.0,6.0,86,0.00,,---,0.00,0.00,VWS V14.00,2013-03-17 05:33:00,
2013-03-17 01:38:00,38.2,34.4,30.02,East,92,0.0,4.0,86,0.00,,---,0.00,0.00,VWS V14.00,2013-03-17 05:38:00,
2013-03-17 01:43:00,38.2,34.4,30.02,ESE,110,0.0,5.0,86,0.00,,---,0.00,0.00,VWS V14.00,2013-03-17 05:43:00,
2013-03-17 01:48:00,38.1,34.3,30.02,SE,125,2.0,4.0,86,0.00,,---,0.00,0.00,VWS V14.00,2013-03-17 05:48:00,
2013-03-17 01:53:00,38.1,34.3,30.01,ESE,109,5.0,6.0,86,0.00,,---,0.00,0.00,VWS V14.00,2013-03-17 05:53:00,
2013-03-17 01:58:00,38.0,33.9,30.01,NE,42,1.0,5.0,85,0.00,,---,0.00,0.00,VWS V14.00,2013-03-17 05:58:00,
2013-03-17 02:03:00,38.0,34.2,30.01,ESE,110,0.0,5.0,86,0.00,,---,0.00,0.00,VWS V14.00,2013-03-17 06:03:00,
2013-03-17 02:08:00,37.9,34.1,30.01,East,90,4.0,4.0,86,0.00,,---,0.00,0.00,VWS V14.00,2013-03-17 06:08:00,
2013-03-17 02:13:00,37.8,34.0,30.02,ESE,108,0.0,6.0,86,0.00,,---,0.00,0.00,VWS V14.00,2013-03-17 06:13:00,
2013-03-17 02:18:00,37.8,34.0,30.02,NE,46,0.0,3.0,86,0.00,,---,0.00,0.00,VWS V14.00,2013-03-17 06:18:00,
2013-03-17 02:23:00,37.7,33.9,30.02,ESE,119,4.0,5.0,86,0.00,,---,0.00,0.00,VWS V14.00,2013-03-17 06:23:00,
2013-03-17 02:28:00,37.7,33.9,30.02,ESE,119,3.0,6.0,86,0.00,,---,0.00,0.00,VWS V14.00,2013-03-17 06:28:00,
2013-03-17 02:33:00,37.6,33.8,30.01,East,94,1.0,6.0,86,0.00,,---,0.00,0.00,VWS V14.00,2013-03-17 06:33:00,
2013-03-17 02:38:00,37.5,33.7,30.01,ESE,108,4.0,6.0,86,0.00,,---,0.00,0.00,VWS V14.00,2013-03-17 06:38:00,
2013-03-17 02:43:00,37.4,33.6,30.01,East,93,1.0,6.0,86,0.00,,---,0.00,0.00,VWS V14.00,2013-03-17 06:43:00,
2013-03-17 02:48:00,37.4,33.6,30.01,ESE,109,7.0,7.0,86,0.00,,---,0.00,0.00,VWS V14.00,2013-03-17 06:48:00,
2013-03-17 02:53:00,37.3,33.5,30.00,ESE,117,5.0,8.0,86,0.00,,---,0.00,0.00,VWS V14.00,2013-03-17 06:53:00,
2013-03-17 02:58:00,37.3,33.5,30.00,ESE,111,2.0,9.0,86,0.00,,---,0.00,0.00,VWS V14.00,2013-03-17 06:58:00,
2013-03-17 03:03:00,37.2,33.4,30.00,NNE,29,2.0,8.0,86,0.00,,---,0.00,0.00,VWS V14.00,2013-03-17 07:03:00,
2013-03-17 03:08:00,37.2,33.4,30.00,ESE,122,0.0,5.0,86,0.00,,---,0.00,0.00,VWS V14.00,2013-03-17 07:08:00,
2013-03-17 03:14:00,37.2,33.7,30.00,ESE,119,0.0,3.0,87,0.00,,---,0.00,0.00,VWS V14.00,2013-03-17 07:14:00,
2013-03-17 03:19:00,37.1,33.3,30.00,East,92,3.0,8.0,86,0.00,,---,0.00,0.00,VWS V14.00,2013-03-17 07:19:00,
2013-03-17 03:24:00,37.1,33.3,30.00,East,101,2.0,6.0,86,0.00,,---,0.00,0.00,VWS V14.00,2013-03-17 07:24:00,
2013-03-17 03:29:00,37.0,33.2,30.01,SE,140,5.0,7.0,86,0.00,,---,0.00,0.00,VWS V14.00,2013-03-17 07:29:00,
2013-03-17 03:34:00,36.9,33.1,30.00,East,101,1.0,6.0,86,0.00,,---,0.00,0.00,VWS V14.00,2013-03-17 07:34:00,
2013-03-17 03:39:00,36.9,33.1,30.00,East,100,5.0,5.0,86,0.00,,---,0.00,0.00,VWS V14.00,2013-03-17 07:39:00,
2013-03-17 03:44:00,36.8,33.0,30.00,NNE,22,5.0,9.0,86,0.00,,---,0.00,0.00,VWS V14.00,2013-03-17 07:44:00,
2013-03-17 03:49:00,36.7,32.9,30.00,East,89,7.0,7.0,86,0.00,,---,0.00,0.00,VWS V14.00,2013-03-17 07:49:00,
2013-03-17 03:54:00,36.6,32.8,30.00,East,94,8.0,11.0,86,0.00,,---,0.00,0.00,VWS V14.00,2013-03-17 07:54:00,
2013-03-17 03:59:00,36.6,32.8,29.99,North,360,5.0,10.0,86,0.00,,---,0.00,0.00,VWS V14.00,2013-03-17 07:59:00,
2013-03-17 04:04:00,36.5,32.7,29.99,SE,128,1.0,8.0,86,0.00,,---,0.00,0.00,VWS V14.00,2013-03-17 08:04:00,
2013-03-17 04:09:00,36.4,32.6,30.00,East,90,1.0,7.0,86,0.00,,---,0.00,0.00,VWS V14.00,2013-03-17 08:09:00,
2013-03-17 04:14:00,36.4,32.6,30.01,SE,142,3.0,7.0,86,0.00,,---,0.00,0.00,VWS V14.00,2013-03-17 08:14:00,
2013-03-17 04:19:00,36.3,32.5,30.00,ENE,78,5.0,9.0,86,0.00,,---,0.00,0.00,VWS V14.00,2013-03-17 08:19:00,
2013-03-17 04:24:00,36.2,32.4,30.01,East,94,7.0,7.0,86,0.00,,---,0.00,0.00,VWS V14.00,2013-03-17 08:24:00,
2013-03-17 04:29:00,36.2,32.4,30.01,ESE,107,1.0,6.0,86,0.00,,---,0.00,0.00,VWS V14.00,2013-03-17 08:29:00,
2013-03-17 04:34:00,36.1,32.3,30.02,ENE,62,0.0,6.0,86,0.00,,---,0.00,0.00,VWS V14.00,2013-03-17 08:34:00,
2013-03-17 04:39:00,36.1,32.3,30.02,NNE,17,0.0,6.0,86,0.00,,---,0.00,0.00,VWS V14.00,2013-03-17 08:39:00,
2013-03-17 04:44:00,36.1,32.3,30.02,West,279,2.0,4.0,86,0.00,,---,0.00,0.00,VWS V14.00,2013-03-17 08:44:00,
2013-03-17 04:49:00,36.1,32.3,30.02,NNE,21,1.0,5.0,86,0.00,,---,0.00,0.00,VWS V14.00,2013-03-17 08:49:00,
2013-03-17 04:54:00,36.1,32.3,30.03,ENE,59,1.0,6.0,86,0.00,,---,0.00,0.00,VWS V14.00,2013-03-17 08:54:00,
2013-03-17 04:59:00,36.1,32.3,30.03,ESE,107,9.0,10.0,86,0.00,,---,0.00,0.00,VWS V14.00,2013-03-17 08:59:00,
2013-03-17 05:04:00,36.1,32.0,30.04,NE,42,6.0,7.0,85,0.00,,---,0.00,0.00,VWS V14.00,2013-03-17 09:04:00,
2013-03-17 05:09:00,36.0,31.9,30.04,East,98,11.0,11.0,85,0.00,,---,0.00,0.00,VWS V14.00,2013-03-17 09:09:00,
2013-03-17 05:14:00,35.9,31.8,30.04,ESE,114,1.0,5.0,85,0.00,,---,0.00,0.00,VWS V14.00,2013-03-17 09:14:00,
2013-03-17 05:19:00,35.9,31.8,30.05,East,94,0.0,9.0,85,0.00,,---,0.00,0.00,VWS V14.00,2013-03-17 09:19:00,
2013-03-17 05:24:00,35.9,31.8,30.06,North,350,1.0,7.0,85,0.00,,---,0.00,0.00,VWS V14.00,2013-03-17 09:24:00,
2013-03-17 05:29:00,35.9,31.8,30.05,North,9,0.0,4.0,85,0.00,,---,0.00,0.00,VWS V14.00,2013-03-17 09:29:00,
2013-03-17 05:34:00,35.8,31.7,30.05,ESE,109,2.0,4.0,85,0.00,,---,0.00,0.00,VWS V14.00,2013-03-17 09:34:00,
2013-03-17 05:39:00,35.8,31.7,30.05,NE,41,0.0,5.0,85,0.00,,---,0.00,0.00,VWS V14.00,2013-03-17 09:39:00,
2013-03-17 05:44:00,35.8,31.7,30.05,East,95,0.0,5.0,85,0.00,,---,0.00,0.00,VWS V14.00,2013-03-17 09:44:00,
2013-03-17 05:49:00,35.8,31.7,30.05,NE,34,2.0,6.0,85,0.00,,---,0.00,0.00,VWS V14.00,2013-03-17 09:49:00,
2013-03-17 05:54:00,35.7,31.6,30.05,SE,137,0.0,7.0,85,0.00,,---,0.00,0.00,VWS V14.00,2013-03-17 09:54:00,
2013-03-17 05:59:00,35.6,31.5,30.05,ESE,109,0.0,8.0,85,0.00,,---,0.00,0.00,VWS V14.00,2013-03-17 09:59:00,
2013-03-17 06:04:00,35.7,31.6,30.06,North,5,2.0,6.0,85,0.00,,---,0.00,0.00,VWS V14.00,2013-03-17 10:04:00,
2013-03-17 06:09:00,35.6,31.5,30.07,NNE,22,3.0,9.0,85,0.00,,---,0.00,0.00,VWS V14.00,2013-03-17 10:09:00,
2013-03-17 06:14:00,35.5,31.5,30.08,NNE,22,3.0,8.0,85,0.00,,---,0.00,0.00,VWS V14.00,2013-03-17 10:14:00,
2013-03-17 06:19:00,35.5,31.5,30.08,NNE,17,2.0,5.0,85,0.00,,---,0.00,0.00,VWS V14.00,2013-03-17 10:19:00,
2013-03-17 06:24:00,35.4,31.4,30.08,NE,51,4.0,7.0,85,0.00,,---,0.00,0.00,VWS V14.00,2013-03-17 10:24:00,
2013-03-17 06:29:00,35.4,31.4,30.08,ESE,105,4.0,4.0,85,0.00,,---,0.00,0.00,VWS V14.00,2013-03-17 10:29:00,
2013-03-17 06:34:00,35.3,31.2,30.09,ESE,106,6.0,6.0,85,0.00,,---,0.00,0.00,VWS V14.00,2013-03-17 10:34:00,
2013-03-17 06:39:00,35.3,31.2,30.09,ESE,102,5.0,7.0,85,0.00,,---,0.00,0.00,VWS V14.00,2013-03-17 10:39:00,
2013-03-17 06:44:00,35.3,31.2,30.10,NNE,17,4.0,5.0,85,0.00,,---,0.00,0.00,VWS V14.00,2013-03-17 10:44:00,
2013-03-17 06:49:00,35.3,31.2,30.09,ESE,103,0.0,7.0,85,0.00,,---,0.00,0.00,VWS V14.00,2013-03-17 10:49:00,
2013-03-17 06:54:00,35.2,31.1,30.09,East,90,3.0,5.0,85,0.00,,---,0.00,0.00,VWS V14.00,2013-03-17 10:54:00,
2013-03-17 06:59:00,35.2,31.1,30.09,ENE,59,1.0,7.0,85,0.00,,---,0.00,0.00,VWS V14.00,2013-03-17 10:59:00,
2013-03-17 07:04:00,35.1,31.0,30.09,SE,130,4.0,8.0,85,0.00,,---,0.00,0.00,VWS V14.00,2013-03-17 11:04:00,
2013-03-17 07:09:00,35.0,31.0,30.10,East,87,9.0,12.0,85,0.00,,---,0.00,0.00,VWS V14.00,2013-03-17 11:09:00,
2013-03-17 07:14:00,34.8,31.0,30.10,ESE,111,4.0,10.0,86,0.00,,---,0.00,0.00,VWS V14.00,2013-03-17 11:14:00,
2013-03-17 07:19:00,34.7,31.0,30.10,ESE,107,5.0,7.0,86,0.00,,---,0.00,0.00,VWS V14.00,2013-03-17 11:19:00,
2013-03-17 07:24:00,34.7,31.0,30.11,ESE,110,0.0,10.0,86,0.00,,---,0.00,0.00,VWS V14.00,2013-03-17 11:24:00,
2013-03-17 07:29:00,34.6,30.9,30.11,East,101,5.0,9.0,86,0.00,,---,0.00,0.00,VWS V14.00,2013-03-17 11:29:00,
2013-03-17 07:34:00,34.6,30.9,30.11,ESE,111,2.0,4.0,86,0.00,,---,0.00,0.00,VWS V14.00,2013-03-17 11:34:00,
2013-03-17 07:39:00,34.6,30.9,30.11,ESE,115,0.0,5.0,86,0.00,,---,0.00,0.00,VWS V14.00,2013-03-17 11:39:00,
2013-03-17 07:44:00,34.6,30.9,30.10,ESE,115,2.0,6.0,86,0.00,,---,0.00,0.00,VWS V14.00,2013-03-17 11:44:00,
2013-03-17 07:49:00,34.6,30.9,30.10,ESE,108,5.0,9.0,86,0.00,,---,0.00,0.00,VWS V14.00,2013-03-17 11:49:00,
2013-03-17 07:54:00,34.5,30.8,30.10,ENE,71,7.0,8.0,86,0.00,,---,0.00,0.00,VWS V14.00,2013-03-17 11:54:00,
2013-03-17 07:59:00,34.4,30.6,30.10,East,92,4.0,8.0,86,0.00,,---,0.00,0.00,VWS V14.00,2013-03-17 11:59:00,
2013-03-17 08:04:00,34.3,30.6,30.11,SE,127,2.0,7.0,86,0.00,,---,0.00,0.00,VWS V14.00,2013-03-17 12:04:00,
2013-03-17 08:09:00,34.3,30.6,30.12,ESE,107,6.0,8.0,86,0.00,,---,0.00,0.00,VWS V14.00,2013-03-17 12:09:00,
2013-03-17 08:14:00,34.1,30.6,30.12,ESE,103,4.0,9.0,87,0.00,,---,0.00,0.00,VWS V14.00,2013-03-17 12:14:00,
2013-03-17 08:19:00,33.8,30.4,30.13,East,100,0.0,7.0,87,0.00,,---,0.00,5.00,VWS V14.00,2013-03-17 12:19:00,
2013-03-17 08:24:00,33.6,30.4,30.13,ESE,107,2.0,7.0,88,0.00,,---,0.00,7.00,VWS V14.00,2013-03-17 12:24:00,
2013-03-17 08:29:00,33.4,30.2,30.14,ENE,69,2.0,8.0,88,0.00,,---,0.00,0.00,VWS V14.00,2013-03-17 12:29:00,
2013-03-17 08:34:00,33.2,30.0,30.14,ESE,109,1.0,7.0,88,0.00,,---,0.00,7.00,VWS V14.00,2013-03-17 12:34:00,
2013-03-17 08:39:00,33.1,29.9,30.13,ESE,115,3.0,8.0,88,0.00,,---,0.00,12.00,VWS V14.00,2013-03-17 12:39:00,
2013-03-17 08:44:00,33.0,29.8,30.13,ESE,106,2.0,7.0,88,0.00,,---,0.00,19.00,VWS V14.00,2013-03-17 12:44:00,
2013-03-17 08:49:00,33.0,30.1,30.14,ESE,112,4.0,5.0,89,0.00,,---,0.00,21.00,VWS V14.00,2013-03-17 12:49:00,
2013-03-17 08:54:00,33.0,30.1,30.14,ESE,111,2.0,6.0,89,0.00,,---,0.00,33.00,VWS V14.00,2013-03-17 12:54:00,
2013-03-17 08:59:00,33.1,30.2,30.13,ESE,111,4.0,6.0,89,0.00,,---,0.00,46.00,VWS V14.00,2013-03-17 12:59:00,
2013-03-17 09:04:00,33.2,30.3,30.13,ESE,111,4.0,9.0,89,0.00,,---,0.00,63.00,VWS V14.00,2013-03-17 13:04:00,
2013-03-17 09:09:00,33.3,30.4,30.13,East,100,1.0,8.0,89,0.00,,---,0.00,46.00,VWS V14.00,2013-03-17 13:09:00,
2013-03-17 09:14:00,33.4,30.5,30.14,NNE,21,1.0,6.0,89,0.00,,---,0.00,37.00,VWS V14.00,2013-03-17 13:14:00,
2013-03-17 09:19:00,33.5,30.6,30.15,NE,46,0.0,7.0,89,0.00,,---,0.00,18.00,VWS V14.00,2013-03-17 13:19:00,
2013-03-17 09:24:00,33.6,30.4,30.15,ESE,112,2.0,6.0,88,0.00,,---,0.00,30.00,VWS V14.00,2013-03-17 13:24:00,
2013-03-17 09:29:00,33.8,30.4,30.14,East,89,0.0,8.0,87,0.00,,---,0.00,62.00,VWS V14.00,2013-03-17 13:29:00,
2013-03-17 09:34:00,33.9,30.5,30.14,ENE,78,5.0,9.0,87,0.00,,---,0.00,69.00,VWS V14.00,2013-03-17 13:34:00,
2013-03-17 09:39:00,34.2,30.5,30.13,ESE,115,8.0,9.0,86,0.00,,---,0.00,63.00,VWS V14.00,2013-03-17 13:39:00,
2013-03-17 09:45:00,34.2,30.2,30.13,ESE,102,4.0,12.0,85,0.00,,---,0.00,40.00,VWS V14.00,2013-03-17 13:45:00,
2013-03-17 09:50:00,34.3,30.3,30.14,ESE,115,3.0,8.0,85,0.00,,---,0.00,58.00,VWS V14.00,2013-03-17 13:50:00,
2013-03-17 09:55:00,34.4,30.4,30.14,NNE,33,4.0,6.0,85,0.00,,---,0.00,49.00,VWS V14.00,2013-03-17 13:55:00,
2013-03-17 10:00:00,34.5,30.5,30.13,East,94,5.0,9.0,85,0.00,,---,0.00,46.00,VWS V14.00,2013-03-17 14:00:00,
2013-03-17 10:05:00,34.4,30.1,30.12,ESE,105,5.0,12.0,84,0.00,,---,0.00,51.00,VWS V14.00,2013-03-17 14:05:00,
2013-03-17 10:10:00,34.4,30.1,30.12,ESE,104,6.0,11.0,84,0.00,,---,0.00,49.00,VWS V14.00,2013-03-17 14:10:00,
2013-03-17 10:15:00,34.4,30.1,30.12,East,92,7.0,7.0,84,0.00,,---,0.00,47.00,VWS V14.00,2013-03-17 14:15:00,
2013-03-17 10:20:00,34.5,30.2,30.12,ESE,113,4.0,14.0,84,0.00,,---,0.00,62.00,VWS V14.00,2013-03-17 14:20:00,
2013-03-17 10:25:00,34.5,30.2,30.13,East,94,0.0,7.0,84,0.00,,---,0.00,51.00,VWS V14.00,2013-03-17 14:25:00,
2013-03-17 10:30:00,34.6,30.3,30.13,ESE,115,5.0,7.0,84,0.00,,---,0.00,42.00,VWS V14.00,2013-03-17 14:30:00,
2013-03-17 10:35:00,34.7,30.1,30.12,ESE,109,3.0,9.0,83,0.00,,---,0.00,23.00,VWS V14.00,2013-03-17 14:35:00,
2013-03-17 10:40:00,34.7,30.4,30.12,ESE,119,2.0,8.0,84,0.00,,---,0.00,40.00,VWS V14.00,2013-03-17 14:40:00,
2013-03-17 10:45:00,34.7,30.1,30.12,ESE,106,6.0,13.0,83,0.00,,---,0.00,63.00,VWS V14.00,2013-03-17 14:45:00,
2013-03-17 10:50:00,34.7,30.4,30.12,ENE,78,6.0,11.0,84,0.00,,---,0.00,53.00,VWS V14.00,2013-03-17 14:50:00,
2013-03-17 10:55:00,34.7,30.1,30.13,ESE,103,6.0,10.0,83,0.00,,---,0.00,42.00,VWS V14.00,2013-03-17 14:55:00,
2013-03-17 11:00:00,34.7,30.1,30.13,ESE,121,4.0,11.0,83,0.00,,---,0.00,46.00,VWS V14.00,2013-03-17 15:00:00,
2013-03-17 11:05:00,34.7,30.4,30.13,SE,125,5.0,10.0,84,0.00,,---,0.00,54.00,VWS V14.00,2013-03-17 15:05:00,
2013-03-17 11:10:00,34.4,30.4,30.13,ESE,122,5.0,10.0,85,0.00,,---,0.00,65.00,VWS V14.00,2013-03-17 15:10:00,
2013-03-17 11:15:00,33.9,30.5,30.13,ESE,113,6.0,10.0,87,0.00,,---,0.00,81.00,VWS V14.00,2013-03-17 15:15:00,
2013-03-17 11:20:00,33.5,30.3,30.14,ESE,104,4.0,9.0,88,0.00,,---,0.00,113.00,VWS V14.00,2013-03-17 15:20:00,
2013-03-17 11:25:00,33.4,30.2,30.13,East,95,5.0,9.0,88,0.00,,---,0.00,121.00,VWS V14.00,2013-03-17 15:25:00,
2013-03-17 11:30:00,33.4,30.5,30.13,ESE,112,5.0,7.0,89,0.00,,---,0.00,142.00,VWS V14.00,2013-03-17 15:30:00,
2013-03-17 11:35:00,33.5,30.6,30.13,ESE,119,2.0,7.0,89,0.00,,---,0.00,172.00,VWS V14.00,2013-03-17 15:35:00,
2013-03-17 11:40:00,33.5,30.6,30.14,ESE,106,2.0,8.0,89,0.00,,---,0.00,132.00,VWS V14.00,2013-03-17 15:40:00,
2013-03-17 11:45:00,33.6,30.7,30.13,ESE,120,5.0,8.0,89,0.01,,---,0.01,144.00,VWS V14.00,2013-03-17 15:45:00,
2013-03-17 11:50:00,33.8,30.6,30.13,ESE,109,2.0,7.0,88,0.01,,---,0.01,146.00,VWS V14.00,2013-03-17 15:50:00,
2013-03-17 11:55:00,34.0,31.1,30.13,SE,134,5.0,7.0,89,0.01,,---,0.01,139.00,VWS V14.00,2013-03-17 15:55:00,
2013-03-17 12:00:00,34.1,30.9,30.13,SE,130,2.0,7.0,88,0.01,,---,0.01,127.00,VWS V14.00,2013-03-17 16:00:00,
2013-03-17 12:05:00,34.2,31.0,30.13,SE,126,2.0,7.0,88,0.01,,---,0.01,100.00,VWS V14.00,2013-03-17 16:05:00,
2013-03-17 12:10:00,34.3,31.1,30.14,ESE,110,2.0,5.0,88,0.01,,---,0.01,77.00,VWS V14.00,2013-03-17 16:10:00,
2013-03-17 12:15:00,34.3,31.4,30.14,ESE,120,5.0,7.0,89,0.01,,---,0.01,67.00,VWS V14.00,2013-03-17 16:15:00,
2013-03-17 12:20:00,34.3,31.4,30.14,ESE,111,2.0,8.0,89,0.01,,---,0.01,79.00,VWS V14.00,2013-03-17 16:20:00,
2013-03-17 12:25:00,34.3,31.4,30.14,SE,135,2.0,9.0,89,0.01,,---,0.01,81.00,VWS V14.00,2013-03-17 16:25:00,
2013-03-17 12:30:00,34.4,31.5,30.14,ESE,113,4.0,9.0,89,0.01,,---,0.01,97.00,VWS V14.00,2013-03-17 16:30:00,
2013-03-17 12:35:00,34.5,31.6,30.14,East,98,2.0,9.0,89,0.01,,---,0.01,114.00,VWS V14.00,2013-03-17 16:35:00,
2013-03-17 12:40:00,34.7,31.8,30.14,ESE,105,1.0,2.0,89,0.01,,---,0.01,130.00,VWS V14.00,2013-03-17 16:40:00,
2013-03-17 12:45:00,34.9,32.0,30.14,East,98,3.0,5.0,89,0.00,,---,0.01,105.00,VWS V14.00,2013-03-17 16:45:00,
2013-03-17 12:50:00,35.0,31.8,30.14,East,86,11.0,11.0,88,0.00,,---,0.01,86.00,VWS V14.00,2013-03-17 16:50:00,
2013-03-17 12:55:00,35.1,31.9,30.13,East,97,7.0,7.0,88,0.00,,---,0.01,100.00,VWS V14.00,2013-03-17 16:55:00,
2013-03-17 13:00:00,35.2,32.0,30.13,SE,126,6.0,6.0,88,0.00,,---,0.01,86.00,VWS V14.00,2013-03-17 17:00:00,
2013-03-17 13:05:00,35.1,31.6,30.13,SE,125,6.0,7.0,87,0.00,,---,0.01,90.00,VWS V14.00,2013-03-17 17:05:00,
2013-03-17 13:10:00,35.2,31.7,30.13,ESE,117,8.0,8.0,87,0.00,,---,0.01,114.00,VWS V14.00,2013-03-17 17:10:00,
2013-03-17 13:15:00,35.2,31.7,30.13,ESE,114,4.0,5.0,87,0.00,,---,0.01,132.00,VWS V14.00,2013-03-17 17:15:00,
2013-03-17 13:20:00,35.5,32.0,30.13,ENE,76,5.0,9.0,87,0.00,,---,0.01,128.00,VWS V14.00,2013-03-17 17:20:00,
2013-03-17 13:25:00,35.6,32.1,30.13,East,83,1.0,3.0,87,0.00,,---,0.01,118.00,VWS V14.00,2013-03-17 17:25:00,
2013-03-17 13:30:00,35.7,32.2,30.13,ESE,109,7.0,9.0,87,0.00,,---,0.01,139.00,VWS V14.00,2013-03-17 17:30:00,
2013-03-17 13:35:00,35.5,32.0,30.12,ESE,121,8.0,8.0,87,0.00,,---,0.01,135.00,VWS V14.00,2013-03-17 17:35:00,
2013-03-17 13:40:00,35.4,31.9,30.12,SE,126,4.0,6.0,87,0.00,,---,0.01,169.00,VWS V14.00,2013-03-17 17:40:00,
2013-03-17 13:45:00,35.4,32.2,30.12,SE,125,6.0,7.0,88,0.00,,---,0.01,155.00,VWS V14.00,2013-03-17 17:45:00,
2013-03-17 13:50:00,35.4,32.2,30.12,SE,127,6.0,6.0,88,0.00,,---,0.01,162.00,VWS V14.00,2013-03-17 17:50:00,
2013-03-17 13:55:00,35.2,32.0,30.12,ESE,119,2.0,3.0,88,0.00,,---,0.01,167.00,VWS V14.00,2013-03-17 17:55:00,
2013-03-17 14:00:00,35.2,32.3,30.12,ESE,105,3.0,5.0,89,0.00,,---,0.01,139.00,VWS V14.00,2013-03-17 18:00:00,
2013-03-17 14:05:00,35.2,32.3,30.12,East,88,5.0,7.0,89,0.00,,---,0.01,114.00,VWS V14.00,2013-03-17 18:05:00,
2013-03-17 14:10:00,35.1,32.2,30.12,ESE,116,4.0,5.0,89,0.00,,---,0.01,111.00,VWS V14.00,2013-03-17 18:10:00,
2013-03-17 14:15:00,35.1,32.2,30.12,East,99,4.0,7.0,89,0.00,,---,0.01,123.00,VWS V14.00,2013-03-17 18:15:00,
2013-03-17 14:20:00,35.1,32.2,30.12,East,98,4.0,8.0,89,0.00,,---,0.01,130.00,VWS V14.00,2013-03-17 18:20:00,
2013-03-17 14:25:00,35.0,32.1,30.11,ESE,111,9.0,9.0,89,0.00,,---,0.01,123.00,VWS V14.00,2013-03-17 18:25:00,
2013-03-17 14:30:00,35.0,32.1,30.11,East,101,4.0,5.0,89,0.00,,---,0.01,113.00,VWS V14.00,2013-03-17 18:30:00,
2013-03-17 14:35:00,35.0,32.1,30.11,ESE,109,5.0,5.0,89,0.00,,---,0.01,148.00,VWS V14.00,2013-03-17 18:35:00,
2013-03-17 14:40:00,34.9,32.0,30.11,ESE,117,0.0,0.0,89,0.00,,---,0.01,142.00,VWS V14.00,2013-03-17 18:40:00,
2013-03-17 14:45:00,35.0,32.1,30.12,ESE,113,1.0,1.0,89,0.00,,---,0.01,113.00,VWS V14.00,2013-03-17 18:45:00,
2013-03-17 14:50:00,35.0,32.1,30.11,East,98,5.0,6.0,89,0.00,,---,0.01,102.00,VWS V14.00,2013-03-17 18:50:00,
2013-03-17 14:55:00,34.8,31.9,30.12,ESE,111,2.0,4.0,89,0.00,,---,0.01,105.00,VWS V14.00,2013-03-17 18:55:00,
2013-03-17 15:00:00,34.7,31.8,30.12,East,101,2.0,4.0,89,0.00,,---,0.01,107.00,VWS V14.00,2013-03-17 19:00:00,
2013-03-17 15:05:00,34.8,31.9,30.11,ESE,108,2.0,4.0,89,0.00,,---,0.01,107.00,VWS V14.00,2013-03-17 19:05:00,
2013-03-17 15:10:00,34.8,31.9,30.11,East,98,2.0,4.0,89,0.00,,---,0.01,77.00,VWS V14.00,2013-03-17 19:10:00,
2013-03-17 15:15:00,34.8,31.9,30.11,ESE,102,6.0,6.0,89,0.00,,---,0.01,58.00,VWS V14.00,2013-03-17 19:15:00,
2013-03-17 15:20:00,34.7,31.8,30.11,ESE,111,3.0,4.0,89,0.00,,---,0.01,79.00,VWS V14.00,2013-03-17 19:20:00,
2013-03-17 15:25:00,34.6,31.7,30.11,ESE,116,7.0,7.0,89,0.00,,---,0.01,100.00,VWS V14.00,2013-03-17 19:25:00,
2013-03-17 15:30:00,34.6,31.7,30.11,ESE,113,2.0,4.0,89,0.00,,---,0.01,100.00,VWS V14.00,2013-03-17 19:30:00,
2013-03-17 15:35:00,34.6,31.4,30.11,ESE,103,1.0,1.0,88,0.00,,---,0.01,86.00,VWS V14.00,2013-03-17 19:35:00,
2013-03-17 15:40:00,34.7,31.5,30.10,ESE,116,5.0,5.0,88,0.00,,---,0.01,97.00,VWS V14.00,2013-03-17 19:40:00,
2013-03-17 15:45:00,34.6,31.4,30.10,ESE,107,6.0,6.0,88,0.00,,---,0.01,104.00,VWS V14.00,2013-03-17 19:45:00,
2013-03-17 15:50:00,34.6,31.4,30.10,ESE,109,1.0,4.0,88,0.00,,---,0.01,105.00,VWS V14.00,2013-03-17 19:50:00,
2013-03-17 15:55:00,34.6,31.4,30.10,East,91,4.0,4.0,88,0.00,,---,0.01,97.00,VWS V14.00,2013-03-17 19:55:00,
2013-03-17 16:00:00,34.6,31.4,30.10,ESE,118,4.0,5.0,88,0.00,,---,0.01,93.00,VWS V14.00,2013-03-17 20:00:00,
2013-03-17 16:05:00,34.7,31.5,30.10,ESE,107,0.0,2.0,88,0.00,,---,0.01,93.00,VWS V14.00,2013-03-17 20:05:00,
2013-03-17 16:10:00,34.8,31.6,30.10,ESE,121,2.0,2.0,88,0.00,,---,0.01,93.00,VWS V14.00,2013-03-17 20:10:00,
2013-03-17 16:15:00,34.8,31.6,30.10,ESE,117,2.0,2.0,88,0.00,,---,0.01,81.00,VWS V14.00,2013-03-17 20:15:00,
2013-03-17 16:20:00,34.8,31.6,30.10,ESE,103,2.0,4.0,88,0.00,,---,0.01,90.00,VWS V14.00,2013-03-17 20:20:00,
2013-03-17 16:26:00,34.8,31.6,30.09,SE,128,5.0,5.0,88,0.00,,---,0.01,86.00,VWS V14.00,2013-03-17 20:26:00,
2013-03-17 16:31:00,34.7,31.5,30.09,ESE,113,3.0,4.0,88,0.00,,---,0.01,84.00,VWS V14.00,2013-03-17 20:31:00,
2013-03-17 16:36:00,34.6,31.4,30.09,ESE,113,4.0,4.0,88,0.00,,---,0.01,83.00,VWS V14.00,2013-03-17 20:36:00,
2013-03-17 16:41:00,34.6,31.4,30.09,ESE,108,5.0,7.0,88,0.00,,---,0.01,93.00,VWS V14.00,2013-03-17 20:41:00,
2013-03-17 16:46:00,34.6,31.4,30.09,East,101,1.0,4.0,88,0.00,,---,0.01,84.00,VWS V14.00,2013-03-17 20:46:00,
2013-03-17 16:51:00,34.7,31.5,30.09,ESE,110,2.0,5.0,88,0.00,,---,0.01,84.00,VWS V14.00,2013-03-17 20:51:00,
2013-03-17 16:56:00,34.7,31.5,30.08,East,97,5.0,7.0,88,0.00,,---,0.01,76.00,VWS V14.00,2013-03-17 20:56:00,
2013-03-17 17:01:00,34.6,31.4,30.08,East,97,2.0,4.0,88,0.00,,---,0.01,74.00,VWS V14.00,2013-03-17 21:01:00,
2013-03-17 17:06:00,34.7,31.5,30.08,ESE,119,4.0,5.0,88,0.00,,---,0.01,104.00,VWS V14.00,2013-03-17 21:06:00,
2013-03-17 17:11:00,34.8,31.3,30.08,ESE,121,4.0,6.0,87,0.00,,---,0.01,100.00,VWS V14.00,2013-03-17 21:11:00,
2013-03-17 17:16:00,34.8,31.3,30.08,ESE,109,5.0,6.0,87,0.00,,---,0.01,104.00,VWS V14.00,2013-03-17 21:16:00,
2013-03-17 17:21:00,34.8,31.3,30.08,ESE,105,2.0,10.0,87,0.00,,---,0.01,107.00,VWS V14.00,2013-03-17 21:21:00,
2013-03-17 17:30:00,34.9,31.4,30.08,ESE,113,6.0,8.0,87,0.00,,---,0.01,97.00,VWS V14.00,2013-03-17 21:30:00,
2013-03-17 17:35:00,35.1,31.6,30.07,ESE,121,3.0,7.0,87,0.00,,---,0.01,67.00,VWS V14.00,2013-03-17 21:35:00,
2013-03-17 17:40:00,35.1,31.6,30.08,ESE,121,4.0,9.0,87,0.00,,---,0.01,74.00,VWS V14.00,2013-03-17 21:40:00,
2013-03-17 17:45:00,35.2,31.7,30.08,SE,132,2.0,7.0,87,0.00,,---,0.01,72.00,VWS V14.00,2013-03-17 21:45:00,
2013-03-17 17:50:00,35.2,31.7,30.07,ESE,103,4.0,9.0,87,0.00,,---,0.01,79.00,VWS V14.00,2013-03-17 21:50:00,
2013-03-17 17:55:00,35.2,31.7,30.07,ESE,107,5.0,8.0,87,0.00,,---,0.01,97.00,VWS V14.00,2013-03-17 21:55:00,
2013-03-17 18:00:00,35.2,31.7,30.07,East,100,6.0,10.0,87,0.00,,---,0.01,93.00,VWS V14.00,2013-03-17 22:00:00,
2013-03-17 18:05:00,35.3,31.8,30.07,ESE,113,7.0,10.0,87,0.00,,---,0.01,67.00,VWS V14.00,2013-03-17 22:05:00,
2013-03-17 18:10:00,35.5,32.0,30.07,ESE,107,6.0,11.0,87,0.00,,---,0.01,72.00,VWS V14.00,2013-03-17 22:10:00,
2013-03-17 18:15:00,35.4,32.2,30.07,East,91,6.0,14.0,88,0.00,,---,0.01,83.00,VWS V14.00,2013-03-17 22:15:00,
2013-03-17 18:20:00,35.4,32.2,30.07,ESE,108,5.0,10.0,88,0.00,,---,0.01,70.00,VWS V14.00,2013-03-17 22:20:00,
2013-03-17 18:25:00,35.4,32.2,30.06,ESE,103,6.0,13.0,88,0.00,,---,0.01,49.00,VWS V14.00,2013-03-17 22:25:00,
2013-03-17 18:30:00,35.4,32.2,30.06,East,93,6.0,14.0,88,0.00,,---,0.01,53.00,VWS V14.00,2013-03-17 22:30:00,
2013-03-17 18:35:00,35.4,32.2,30.06,ESE,115,6.0,9.0,88,0.00,,---,0.01,46.00,VWS V14.00,2013-03-17 22:35:00,
2013-03-17 18:40:00,35.5,32.3,30.06,ENE,69,5.0,9.0,88,0.00,,---,0.01,37.00,VWS V14.00,2013-03-17 22:40:00,
2013-03-17 18:45:00,35.5,32.3,30.06,East,84,5.0,8.0,88,0.00,,---,0.01,39.00,VWS V14.00,2013-03-17 22:45:00,
2013-03-17 18:50:00,35.4,32.2,30.07,East,96,6.0,11.0,88,0.00,,---,0.01,25.00,VWS V14.00,2013-03-17 22:50:00,
2013-03-17 18:55:00,35.4,32.2,30.07,ESE,105,4.0,8.0,88,0.00,,---,0.01,18.00,VWS V14.00,2013-03-17 22:55:00,
2013-03-17 19:00:00,35.5,32.6,30.07,East,98,4.0,7.0,89,0.00,,---,0.01,11.00,VWS V14.00,2013-03-17 23:00:00,
2013-03-17 19:05:00,35.5,32.3,30.07,East,90,8.0,10.0,88,0.00,,---,0.01,9.00,VWS V14.00,2013-03-17 23:05:00,
2013-03-17 19:10:00,35.4,32.5,30.07,ESE,103,8.0,9.0,89,0.00,,---,0.01,7.00,VWS V14.00,2013-03-17 23:10:00,
2013-03-17 19:15:00,35.3,32.4,30.07,ESE,115,2.0,8.0,89,0.00,,---,0.01,5.00,VWS V14.00,2013-03-17 23:15:00,
2013-03-17 19:20:00,35.3,32.4,30.07,ESE,111,4.0,10.0,89,0.00,,---,0.01,5.00,VWS V14.00,2013-03-17 23:20:00,
2013-03-17 19:25:00,35.3,32.4,30.07,ESE,106,4.0,9.0,89,0.00,,---,0.01,0.00,VWS V14.00,2013-03-17 23:25:00,
2013-03-17 19:30:00,35.3,32.4,30.07,ESE,117,2.0,9.0,89,0.00,,---,0.01,0.00,VWS V14.00,2013-03-17 23:30:00,
2013-03-17 19:35:00,35.3,32.4,30.07,ESE,111,5.0,9.0,89,0.00,,---,0.01,0.00,VWS V14.00,2013-03-17 23:35:00,
2013-03-17 19:40:00,35.4,32.5,30.07,East,100,4.0,9.0,89,0.00,,---,0.01,0.00,VWS V14.00,2013-03-17 23:40:00,
2013-03-17 19:45:00,35.4,32.5,30.07,East,100,3.0,8.0,89,0.00,,---,0.01,0.00,VWS V14.00,2013-03-17 23:45:00,
2013-03-17 19:50:00,35.3,32.4,30.07,East,83,6.0,8.0,89,0.00,,---,0.01,0.00,VWS V14.00,2013-03-17 23:50:00,
2013-03-17 19:55:00,35.4,32.5,30.07,ESE,119,5.0,7.0,89,0.00,,---,0.01,0.00,VWS V14.00,2013-03-17 23:55:00,
2013-03-17 20:00:00,35.4,32.5,30.07,ESE,113,5.0,8.0,89,0.00,,---,0.01,0.00,VWS V14.00,2013-03-18 00:00:00,
2013-03-17 20:05:00,35.4,32.5,30.07,ESE,104,6.0,9.0,89,0.00,,---,0.01,0.00,VWS V14.00,2013-03-18 00:05:00,
2013-03-17 20:10:00,35.5,32.6,30.08,ESE,120,2.0,10.0,89,0.00,,---,0.01,0.00,VWS V14.00,2013-03-18 00:10:00,
2013-03-17 20:15:00,35.5,32.6,30.07,ESE,113,1.0,8.0,89,0.00,,---,0.01,0.00,VWS V14.00,2013-03-18 00:15:00,
2013-03-17 20:20:00,35.6,32.7,30.07,ESE,109,2.0,9.0,89,0.00,,---,0.01,0.00,VWS V14.00,2013-03-18 00:20:00,
2013-03-17 20:25:00,35.6,32.7,30.07,East,94,6.0,9.0,89,0.00,,---,0.01,0.00,VWS V14.00,2013-03-18 00:25:00,
2013-03-17 20:30:00,35.6,32.7,30.07,East,101,5.0,8.0,89,0.00,,---,0.01,0.00,VWS V14.00,2013-03-18 00:30:00,
2013-03-17 20:35:00,35.6,32.7,30.07,ESE,111,4.0,8.0,89,0.00,,---,0.01,0.00,VWS V14.00,2013-03-18 00:35:00,
2013-03-17 20:40:00,35.5,32.6,30.07,East,101,1.0,8.0,89,0.00,,---,0.01,0.00,VWS V14.00,2013-03-18 00:40:00,
2013-03-17 20:45:00,35.5,32.6,30.07,SE,125,6.0,8.0,89,0.00,,---,0.01,0.00,VWS V14.00,2013-03-18 00:45:00,
2013-03-17 20:50:00,35.4,32.5,30.07,ENE,78,10.0,10.0,89,0.00,,---,0.01,0.00,VWS V14.00,2013-03-18 00:50:00,
2013-03-17 20:55:00,35.4,32.5,30.06,East,101,2.0,12.0,89,0.00,,---,0.01,0.00,VWS V14.00,2013-03-18 00:55:00,
2013-03-17 21:00:00,35.3,32.4,30.06,East,101,5.0,7.0,89,0.00,,---,0.01,0.00,VWS V14.00,2013-03-18 01:00:00,
2013-03-17 21:05:00,35.2,32.3,30.06,East,100,4.0,9.0,89,0.00,,---,0.01,0.00,VWS V14.00,2013-03-18 01:05:00,
2013-03-17 21:10:00,35.1,32.2,30.06,ENE,73,6.0,9.0,89,0.00,,---,0.01,0.00,VWS V14.00,2013-03-18 01:10:00,
2013-03-17 21:15:00,35.0,32.1,30.05,ESE,111,4.0,9.0,89,0.00,,---,0.01,0.00,VWS V14.00,2013-03-18 01:15:00,
2013-03-17 21:20:00,35.0,32.1,30.05,ESE,119,4.0,9.0,89,0.00,,---,0.01,0.00,VWS V14.00,2013-03-18 01:20:00,
2013-03-17 21:25:00,34.9,32.0,30.05,ESE,119,7.0,10.0,89,0.00,,---,0.01,0.00,VWS V14.00,2013-03-18 01:25:00,
2013-03-17 21:30:00,34.9,32.0,30.05,ESE,115,5.0,10.0,89,0.00,,---,0.01,0.00,VWS V14.00,2013-03-18 01:30:00,
2013-03-17 21:35:00,34.9,32.0,30.05,East,91,5.0,9.0,89,0.00,,---,0.01,0.00,VWS V14.00,2013-03-18 01:35:00,
2013-03-17 21:40:00,34.8,31.9,30.05,ESE,112,4.0,8.0,89,0.00,,---,0.01,0.00,VWS V14.00,2013-03-18 01:40:00,
2013-03-17 21:45:00,34.8,31.9,30.05,ESE,109,6.0,8.0,89,0.00,,---,0.01,0.00,VWS V14.00,2013-03-18 01:45:00,
2013-03-17 21:50:00,34.7,31.8,30.05,SE,125,4.0,9.0,89,0.00,,---,0.01,0.00,VWS V14.00,2013-03-18 01:50:00,
2013-03-17 21:55:00,34.6,31.7,30.06,East,79,6.0,8.0,89,0.00,,---,0.01,0.00,VWS V14.00,2013-03-18 01:55:00,
2013-03-17 22:00:00,34.6,31.7,30.05,East,98,8.0,8.0,89,0.00,,---,0.01,0.00,VWS V14.00,2013-03-18 02:00:00,
2013-03-17 22:05:00,34.5,31.6,30.05,ESE,109,6.0,8.0,89,0.00,,---,0.01,0.00,VWS V14.00,2013-03-18 02:05:00,
2013-03-17 22:10:00,34.4,31.5,30.05,ESE,103,5.0,8.0,89,0.00,,---,0.01,0.00,VWS V14.00,2013-03-18 02:10:00,
2013-03-17 22:15:00,34.4,31.5,30.04,East,98,5.0,9.0,89,0.00,,---,0.01,0.00,VWS V14.00,2013-03-18 02:15:00,
2013-03-17 22:20:00,34.3,31.4,30.04,ESE,105,5.0,8.0,89,0.00,,---,0.01,0.00,VWS V14.00,2013-03-18 02:20:00,
2013-03-17 22:25:00,34.3,31.4,30.04,ESE,105,4.0,8.0,89,0.00,,---,0.01,0.00,VWS V14.00,2013-03-18 02:25:00,
2013-03-17 22:30:00,34.3,31.4,30.04,ESE,108,6.0,9.0,89,0.00,,---,0.01,0.00,VWS V14.00,2013-03-18 02:30:00,
2013-03-17 22:35:00,34.2,31.0,30.04,SE,128,5.0,8.0,88,0.00,,---,0.01,0.00,VWS V14.00,2013-03-18 02:35:00,
2013-03-17 22:43:00,34.3,31.1,30.04,East,96,4.0,10.0,88,0.00,,---,0.01,0.00,VWS V14.00,2013-03-18 02:43:00,
2013-03-17 22:48:00,34.3,31.1,30.03,ESE,109,6.0,9.0,88,0.00,,---,0.01,0.00,VWS V14.00,2013-03-18 02:48:00,
2013-03-17 22:53:00,34.3,31.1,30.03,ESE,113,2.0,8.0,88,0.00,,---,0.01,0.00,VWS V14.00,2013-03-18 02:53:00,
2013-03-17 22:58:00,34.3,31.1,30.02,ESE,105,5.0,9.0,88,0.00,,---,0.01,0.00,VWS V14.00,2013-03-18 02:58:00,
2013-03-17 23:03:00,34.3,31.1,30.02,ESE,105,10.0,10.0,88,0.00,,---,0.01,0.00,VWS V14.00,2013-03-18 03:03:00,
2013-03-17 23:08:00,34.3,31.1,30.02,ESE,102,2.0,9.0,88,0.00,,---,0.01,0.00,VWS V14.00,2013-03-18 03:08:00,
2013-03-17 23:13:00,34.3,31.1,30.02,East,92,6.0,10.0,88,0.00,,---,0.01,0.00,VWS V14.00,2013-03-18 03:13:00,
2013-03-17 23:18:00,34.4,31.2,30.02,ESE,107,6.0,8.0,88,0.00,,---,0.01,0.00,VWS V14.00,2013-03-18 03:18:00,
2013-03-17 23:23:00,34.4,31.2,30.01,East,99,7.0,10.0,88,0.00,,---,0.01,0.00,VWS V14.00,2013-03-18 03:23:00,
2013-03-17 23:28:00,34.4,31.2,30.01,ESE,105,7.0,9.0,88,0.00,,---,0.01,0.00,VWS V14.00,2013-03-18 03:28:00,
2013-03-17 23:33:00,34.5,31.3,30.00,ESE,103,5.0,11.0,88,0.00,,---,0.01,0.00,VWS V14.00,2013-03-18 03:33:00,
2013-03-17 23:38:00,34.5,31.3,30.00,ESE,108,5.0,9.0,88,0.00,,---,0.01,0.00,VWS V14.00,2013-03-18 03:38:00,
2013-03-17 23:43:00,34.5,31.3,30.00,ESE,122,9.0,12.0,88,0.00,,---,0.01,0.00,VWS V14.00,2013-03-18 03:43:00,
2013-03-17 23:48:00,34.6,31.4,30.01,East,90,7.0,10.0,88,0.00,,---,0.01,0.00,VWS V14.00,2013-03-18 03:48:00,
2013-03-17 23:53:00,34.6,31.1,30.01,SE,126,5.0,10.0,87,0.00,,---,0.01,0.00,VWS V14.00,2013-03-18 03:53:00,
2013-03-17 23:58:00,34.6,31.1,30.01,ESE,111,5.0,9.0,87,0.00,,---,0.00,0.00,VWS V14.00,2013-03-18 03:58:00,